Regional Weather Roundup
Issued by NWS

Home | Current Version | Previous Version | Graphics & Text | Print | Product List | Glossary On
Versions: 1 2 3 4 5 6 7 8 9 10 11 12 13 14 15 16 17 18 19 20 21 22 23 24 25 26 27 28 29 30 31 32 33 34 35 36 37 38 39 40 41 42 43 44 45 46 47 48 49 50
000
ASUS45 KTFX 221204
RWRMT
MONTANA HOURLY WEATHER ROUNDUP
NATIONAL WEATHER SERVICE GREAT FALLS MT
604 AM MDT MON SEP 22 2014

NOTE: "FAIR" INDICATES FEW OR NO CLOUDS BELOW 12000 FEET WITH NO
SIGNIFICANT WEATHER AND/OR OBSTRUCTIONS TO VISIBILITY.

* THESE STATIONS ARE NOT UNDER NWS QUALITY CONTROL. THEY DO NOT
   REPORT WEATHER SUCH AS PRECIPITATION OR FOG.

MTZ001>007-043-221300-
WEST OF THE DIVIDE
CITY           SKY/WX    TMP DP  RH WIND       PRES   REMARKS
KALISPELL      CLEAR     45  43  93 W6        29.95S
MISSOULA       CLEAR     52  41  66 E3        30.00R
BUTTE          CLOUDY    50  41  71 SE3       30.12S
MULLAN PASS    CLEAR     59  39  48 NW7       30.10S
* ESSEX        N/A       45  41  86 E2G7       N/A
* LINCOLN      N/A       37  35  92 W1         N/A
* POLSON       N/A       54  42  64 N/A        N/A
* RONAN APT    PTCLDY    45  39  80 N/A        N/A
* SEELEY LAKE  N/A       39  34  82 N2         N/A
* THOMP F APT  CLEAR     50  49  96 NE1        N/A
$$

MTZ008-052>055-221300-
SOUTHWEST MONTANA
CITY           SKY/WX    TMP DP  RH WIND       PRES   REMARKS
BOZEMAN        CLOUDY    54  48  80 S5        30.07F
DILLON         CLOUDY    55  52  90 SW7       30.12S
W YELLOWSTONE  CLOUDY    50  50 100 CALM      30.22F
* THREE FORKS  CLOUDY    52  34  50 N/A        N/A
* BOULDER HILL N/A       52  37  57 SW11       N/A
* MONIDA PASS  N/A       49  49 100 SE8        N/A
* RAYNOLDS PAS N/A       51  30  45 SE11       N/A
* WHITEHALL    N/A       52  45  77 NE4        N/A
* WISE RIVER   N/A       44  38  80 SW3G8      N/A
$$

MTZ009>010-012-014-046-048-049-054-221300-
EAST SLOPES AND CENTRAL MONTANA
CITY           SKY/WX    TMP DP  RH WIND       PRES   REMARKS
CUT BANK       CLEAR     41  37  86 N7        29.94S
GREAT FALLS    PTCLDY    57  45  64 S8        29.94S
HELENA         MOCLDY    52  45  77 CALM      30.03R
MALMSTROM AFB  PTCLDY    50  45  83 N3        29.95S
* CONRAD       CLEAR     39  39 100 N/A        N/A
* EAST GLACIER N/A       61  39  44 NW4G10     N/A
* MONARCH      N/A       49  37  63 SW1        N/A
* PENDROY      N/A       54  44  69 N/A        N/A
* ROGERS PASS  N/A       56  42  60 NW5        N/A
* SAINT MARY   N/A       40  37  89 SE2        N/A
* SWEET GRASS  N/A       53  45  74 S11        N/A
$$

MTZ011-013-016-021-035-040-045-047-050-051-221300-
NORTH CENTRAL MONTANA
CITY           SKY/WX    TMP DP  RH WIND       PRES   REMARKS
HAVRE          CLEAR     43  39  86 CALM      29.92S
LEWISTOWN      PTCLDY    46  39  77 SE6       29.98F
* CHESTER      N/A       43  39  86 S1         N/A
* DENTON       N/A       46  42  86 N/A        N/A
* GEYSER       N/A       48  41  77 S9         N/A
* JUDITH GAP   N/A       51  45  80 S3         N/A
* LOMA         N/A       49  44  83 E1         N/A
$$

MTZ017>020-022>027-061-062-221300-
NORTHEAST MONTANA
CITY           SKY/WX    TMP DP  RH WIND       PRES   REMARKS
GLASGOW        CLEAR     48  36  63 E14       29.96F
JORDAN         CLEAR     50  37  61 E7        29.97F
SIDNEY         CLEAR     37  34  89 CALM      30.06F
WOLF POINT     CLEAR     43  36  76 E8        30.01F
* BEAVER HILL  N/A       53  37  55 SE10       N/A
* CIRCLE       N/A       53  39  59 N/A        N/A
* LINDSAY DVD  N/A       46  35  66 E1         N/A
$$

MTZ028>042-056>058-221300-
SOUTHCENTRAL AND SOUTHEAST MONTANA
CITY           SKY/WX    TMP DP  RH WIND       PRES   REMARKS
BAKER          CLEAR     46  36  68 SE10      30.07F
BILLINGS       CLOUDY    55  43  64 SW5       29.99F
LIVINGSTON     CLOUDY    57  45  64 NW16G23   30.06R
MILES CITY     PTCLDY    57  39  51 SE10      30.00F
* LAUREL APT   CLOUDY    54  41  62 N/A        N/A
* ROUNDUP APT  CLOUDY    50  43  77 S9         N/A
* ALZADA       N/A       45  39  80 E6         N/A
* HYSHAM       N/A       59  39  48 N/A        N/A
* LAME DEER    N/A       56  40  55 S9         N/A
* REED POINT   N/A       55  45  69 N/A        N/A
* ROSCOE HILL  N/A       56  40  55 S4         N/A
$$

REGIONAL REPORTS...DAKOTAS
CITY           SKY/WX    TMP DP  RH WIND       PRES   REMARKS
WILLISTON      CLEAR     39  36  89 N5        30.06F WCI  35
DICKINSON      CLEAR     45  37  74 S13       30.07F
BEACH          N/A       48  37  66 S8        30.07F
CROSBY         CLEAR     45  43  93 S8        30.07F
TIOGA          CLEAR     34  34 100 E6        30.12F WCI  29
WATFORD CITY   HAZE      45  37  74 SE6       30.06S
BISMARCK       CLEAR     45  41  86 NE8       30.16F
GRAND FORKS    CLEAR     45  43  93 S7        30.14S
FARGO          CLEAR     48  45  89 S7        30.19S
BUFFALO SD     PTCLDY    48  36  63 E7        30.03F
RAPID CITY     MOCLDY    48  39  71 SE6       30.13F
$$

REGIONAL REPORTS...WYOMING/IDAHO/WASHINGTON
CITY           SKY/WX    TMP DP  RH WIND       PRES   REMARKS
GILLETTE       CLOUDY    57  41  55 S13       30.08F
SHERIDAN       CLOUDY    52  46  80 SW5       30.03S
CODY           CLOUDY   N/A N/A N/A N/A        N/A
YELLOWSTONE LA CLOUDY    46  45  96 CALM      30.30S
SALMON         CLOUDY    63  52  68 SW14      30.06S
MULLAN PASS    CLEAR     59  39  48 NW7       30.10S
SAND POINT     MOCLDY    46  46 100 CALM      29.94R
SPOKANE        PTCLDY    61  43  52 CALM      29.91S

$$




USA.gov is the U.S. government's official web portal to all federal, state and local government web resources and services.